Location: Oberkirch
(48.5323°N, 8.0787°E)
Time: 02:07:37
(UTC+00:00)

Tiros 1 despin weight - Visible Passes

Search period start: 07 February 2026 00:00
Search period end: 17 February 2026 00:00
Orbit: 557 x 594 km, 48.2° (Epoch: 5 February)

Date Brightness Start Highest point End Pass type
(mag) Time Alt. Az. Time Alt. Az. Time Alt. Az.
7 Feb ? 18:23:31 10° SSW 18:27:01 26° SSE 18:27:04 26° SE visible
7 Feb ? 20:03:00 10° WSW 20:03:15 11° WSW 20:03:15 11° WSW visible
8 Feb ? 18:25:37 10° SW 18:29:26 35° SSE 18:29:50 34° SE visible
8 Feb ? 20:05:32 10° WSW 20:06:01 13° WSW 20:06:01 13° WSW visible
9 Feb ? 18:27:51 10° SW 18:31:52 46° SSE 18:32:32 42° SE visible
9 Feb ? 20:08:04 10° W 20:08:43 14° W 20:08:43 14° W visible
10 Feb ? 18:30:13 10° WSW 18:34:21 58° SSE 18:35:09 48° ESE visible
10 Feb ? 20:10:38 10° W 20:11:20 15° W 20:11:20 15° W visible
11 Feb ? 18:32:39 10° WSW 18:36:51 70° SSE 18:37:43 52° ESE visible
11 Feb ? 20:13:10 10° W 20:13:53 15° W 20:13:53 15° W visible
12 Feb ? 18:35:08 10° WSW 18:39:21 80° S 18:40:14 54° E visible
12 Feb ? 20:15:42 10° W 20:16:24 15° W 20:16:24 15° W visible
13 Feb ? 18:37:38 10° W 18:41:52 86° S 18:42:44 55° E visible
13 Feb ? 20:18:13 10° W 20:18:54 14° W 20:18:54 14° W visible
14 Feb ? 18:40:09 10° W 18:44:22 87° S 18:45:12 57° E visible
14 Feb ? 20:20:44 10° W 20:21:22 14° W 20:21:22 14° W visible
15 Feb ? 18:42:39 10° W 18:46:52 84° S 18:47:39 58° ESE visible
15 Feb ? 20:23:16 10° W 20:23:49 13° W 20:23:49 13° W visible
16 Feb ? 18:45:08 10° W 18:49:20 77° S 18:50:07 57° ESE visible
16 Feb ? 20:25:50 10° W 20:26:17 12° W 20:26:17 12° W visible
